Ellensburg, WA

10:58 PM PST on November 19, 2017 (GMT -0800)
Bowers

Weather History for KELN - October, 2013

Change the Weather History Date:

Sunday, October 6, 2013

  Actual Average (KYKM) Record (KYKM)
Temperature  
Mean Temperature 52 °F -  
Max Temperature 71 °F 68 °F 91 °F (2014)
Min Temperature 33 °F 37 °F 26 °F (1974)
Degree Days  
Heating Degree Days 14    
Growing Degree Days 2 (Base 50)    
Moisture  
Dew Point 37 °F    
Average Humidity 64    
Maximum Humidity 86    
Minimum Humidity 32    
Precipitation  
Precipitation 0.00 in - - ()
Sea Level Pressure  
Sea Level Pressure 30.09 in    
Wind  
Wind Speed 2 mph (East)    
Max Wind Speed 7 mph    
Max Gust Speed -    
Visibility 10 miles    
Events      
Averages and records for this station are not official NWS values.
T = Trace of Precipitation, MM = Missing Value Source: NWS Daily Summary

Daily Weather History Graph

Daily Weather History Graph

Search for Another Location

Airport or City:

Trip Planner

Search our weather history database for the weather conditions in past years. The results will help you decide how hot, cold, wet, or windy it might be!

Date:

Astronomy

Oct. 06, 2013 Rise Set
Actual Time 7:08 AM PDT 6:31 PM PDT
Civil Twilight 6:37 AM PDT 7:01 PM PDT
Nautical Twilight 6:02 AM PDT 7:36 PM PDT
Astronomical Twilight 5:26 AM PDT 8:12 PM PDT
Moon 9:07 AM PDT (10/6) 7:23 PM PDT (10/6)
Length of Visible Light 12h 23m
Length of Day
11h 23m
Waxing Crescent, 4% of the Moon is Illuminated
Oct 6
Waxing Crescent
Oct 11
First Quarter
Oct 18
Full
Oct 26
Last Quarter
Nov 3
New

Hourly Weather History & Observations

Time (PDT) Temp. Windchill Dew Point Humidity Pressure Visibility Wind Dir Wind Speed Gust Speed Precip Events Conditions
12:53 AM 42.1 °F 40.2 °F 34.0 °F 73% 30.24 in 10.0 mi SE 3.5 mph - N/A   Clear
1:53 AM 39.9 °F - 34.0 °F 79% 30.24 in 10.0 mi Calm Calm - N/A   Clear
2:53 AM 37.0 °F - 32.0 °F 82% 30.23 in 10.0 mi Calm Calm - N/A   Clear
3:53 AM 35.1 °F - 30.9 °F 85% 30.21 in - Calm Calm - N/A   Clear
4:53 AM 35.1 °F - 30.9 °F 85% 30.19 in - Calm Calm - N/A   Clear
5:53 AM 35.1 °F - 30.9 °F 85% 30.20 in 10.0 mi Calm Calm - N/A   Clear
6:53 AM 33.1 °F - 28.9 °F 85% 30.20 in 10.0 mi Calm Calm - N/A   Clear
7:53 AM 37.9 °F 35.5 °F 34.0 °F 86% 30.20 in 10.0 mi NNW 3.5 mph - N/A   Clear
8:53 AM 45.0 °F - 37.9 °F 76% 30.19 in - Calm Calm - N/A   Clear
9:53 AM 46.9 °F - 39.0 °F 74% 30.18 in 10.0 mi Calm Calm - N/A   Clear
10:53 AM 55.0 °F - 39.9 °F 57% 30.14 in 10.0 mi Calm Calm - N/A   Clear
11:53 AM 57.9 °F - 41.0 °F 53% 30.13 in 10.0 mi Calm Calm - N/A   Clear
12:53 PM 63.0 °F - 42.1 °F 46% 30.09 in 10.0 mi SSE 3.5 mph - N/A   Clear
1:53 PM 66.9 °F - 39.0 °F 36% 30.05 in 10.0 mi Variable 3.5 mph - N/A   Clear
2:53 PM 68.0 °F - 37.9 °F 33% 30.02 in 10.0 mi South 3.5 mph - N/A   Clear
3:53 PM 70.0 °F - 39.0 °F 32% 30.00 in 10.0 mi Calm Calm - N/A   Clear
4:53 PM 70.0 °F - 39.0 °F 32% 29.98 in 10.0 mi Calm Calm - N/A   Clear
5:53 PM 66.9 °F - 39.9 °F 37% 29.96 in 10.0 mi Calm Calm - N/A   Clear
6:53 PM 54.0 °F - 42.1 °F 64% 29.97 in 10.0 mi East 4.6 mph - N/A   Clear
7:53 PM 51.1 °F - 39.0 °F 63% 29.97 in 10.0 mi NE 6.9 mph - N/A   Clear
8:53 PM 48.0 °F - 39.0 °F 71% 29.96 in 10.0 mi NE 5.8 mph - N/A   Clear
9:53 PM 46.0 °F 42.5 °F 37.0 °F 71% 29.94 in 10.0 mi NE 6.9 mph - N/A   Clear
10:53 PM 48.0 °F - 37.0 °F 66% 29.92 in 10.0 mi Calm Calm - N/A   Clear
11:53 PM 42.1 °F - 35.1 °F 76% 29.91 in 10.0 mi Calm Calm - N/A   Clear